Roseburg, OR

8:32 AM PDT on August 17, 2019 (GMT -0700)
Roseburg Regional

Weather History for KRBG - July, 2019

Change the Weather History Date:

Friday, July 19, 2019

  Actual Average Record
Temperature  
Mean Temperature 69 °F 71 °F  
Max Temperature 81 °F 85 °F 102 °F (1946)
Min Temperature 56 °F 57 °F 45 °F (1962)
Degree Days  
Heating Degree Days 0 0  
Month to date heating degree days 2 8  
Since 1 June heating degree days 37 91  
Since 1 July heating degree days 2 8  
Cooling Degree Days 4 6  
Month to date cooling degree days 104 95  
Year to date cooling degree days 255 165  
Since 1 June cooling degree days 226 145  
Growing Degree Days 18 (Base 50)    
Moisture  
Dew Point 45 °F    
Average Humidity 47    
Maximum Humidity 72    
Minimum Humidity 21    
Precipitation  
Precipitation 0.00 in 0.01 in 0.84 in (1987)
Month to date precipitation 0.02 0.29  
Year to date precipitation 21.69 19.05  
Sea Level Pressure  
Sea Level Pressure 30.03 in    
Wind  
Wind Speed 7 mph (North)    
Max Wind Speed 21 mph    
Max Gust Speed 26 mph    
Visibility 10 miles    
Events      
T = Trace of Precipitation, MM = Missing Value Source: NWS Daily Summary

Daily Weather History Graph

Daily Weather History Graph

Search for Another Location

Airport or City:

Astronomy

Jul. 19, 2019 Rise Set
Actual Time 5:50 AM PDT 8:48 PM PDT
Civil Twilight 5:16 AM PDT 9:22 PM PDT
Nautical Twilight 4:33 AM PDT 10:05 PM PDT
Astronomical Twilight 3:42 AM PDT 10:55 PM PDT
Moon 10:45 PM PDT (7/19) 8:25 AM PDT (7/19)
Length of Visible Light 16h 05m
Length of Day
14h 57m
Waning Gibbous, 92% of the Moon is Illuminated
Jul 19
Waning Gibbous
Jul 24
Last Quarter
Jul 31
New
Aug 7
First Quarter
Aug 15
Full

Hourly Weather History & Observations

Time (PDT) Temp. Dew Point Humidity Pressure Visibility Wind Dir Wind Speed Gust Speed Precip Events Conditions
12:53 AM 61.0 °F 51.1 °F 70% 30.04 in 10.0 mi NW 3.5 mph - N/A   Clear
1:53 AM 60.1 °F 50.0 °F 69% 30.04 in 10.0 mi Calm Calm - N/A   Clear
2:53 AM 60.1 °F 50.0 °F 69% 30.04 in 10.0 mi NW 3.5 mph - N/A   Clear
3:53 AM 59.0 °F 48.9 °F 69% 30.05 in 10.0 mi Variable 3.5 mph - N/A   Clear
4:53 AM 57.9 °F 48.0 °F 70% 30.07 in 10.0 mi North 5.8 mph - N/A   Clear
5:53 AM 55.9 °F 46.9 °F 72% 30.07 in 10.0 mi Calm Calm - N/A   Clear
6:53 AM 57.0 °F 46.9 °F 69% 30.08 in 10.0 mi Calm Calm - N/A   Clear
7:53 AM 59.0 °F 48.0 °F 67% 30.09 in 10.0 mi Variable 6.9 mph - N/A   Clear
8:53 AM 61.0 °F 46.9 °F 60% 30.09 in 10.0 mi North 8.1 mph - N/A   Clear
9:53 AM 64.9 °F 48.0 °F 54% 30.08 in 10.0 mi North 9.2 mph - N/A   Clear
10:53 AM 68.0 °F 48.0 °F 49% 30.06 in 10.0 mi North 11.5 mph - N/A   Clear
11:53 AM 72.0 °F 46.9 °F 41% 30.05 in 10.0 mi North 9.2 mph - N/A   Clear
12:53 PM 75.0 °F 45.0 °F 34% 30.03 in 10.0 mi NNW 11.5 mph 18.4 mph N/A   Clear
2:53 PM 79.0 °F 39.9 °F 25% 30.00 in 10.0 mi NNE 17.3 mph 25.3 mph N/A   Clear
3:53 PM 80.1 °F 39.9 °F 24% 29.99 in 10.0 mi North 11.5 mph - N/A   Clear
4:53 PM 80.1 °F 37.9 °F 22% 29.98 in 10.0 mi NNW 12.7 mph 21.9 mph N/A   Clear
5:53 PM 80.1 °F 39.0 °F 23% 29.97 in 10.0 mi NNW 10.4 mph 23.0 mph N/A   Clear
6:53 PM 78.1 °F 39.9 °F 25% 29.96 in 10.0 mi North 11.5 mph 20.7 mph N/A   Clear
7:53 PM 75.0 °F 41.0 °F 29% 29.97 in 10.0 mi North 8.1 mph - N/A   Clear
8:53 PM 73.0 °F 41.0 °F 31% 29.98 in 10.0 mi NNW 9.2 mph - N/A   Clear
9:53 PM 71.1 °F 41.0 °F 34% 29.99 in 10.0 mi North 5.8 mph - N/A   Clear
10:53 PM 69.1 °F 42.1 °F 38% 30.00 in 10.0 mi North 5.8 mph - N/A   Clear
11:53 PM 66.0 °F 43.0 °F 43% 30.00 in 10.0 mi Calm Calm - N/A   Clear